Torna al catalogo

GLOBALSTAR M080

AttivoComunicazioniLEO
NORAD 38041·PAYLOAD·🇺🇸 United States

Lanciato Dec 28, 2011 da Baikonur Cosmodrome

Loading…

Prossimi Passaggi (prossime 24 ore)

TLE

AggiornatoSource: Space-Track

Epoca: Sep 14, 2026, 15:11 UTC

1 38041U 11080B   26257.63319972 -.00000091  00000-0  71468-4 0  9999
2 38041  52.0046 106.7293 0001177  88.5759 306.6795 12.62258801680185

Traccia GLOBALSTAR M080 in tempo reale con AllMySat

Download on the App Store